THURAYA-4

Last updated on Sun Jun 21 2026 00:03:09 GMT+0000 (Coordinated Universal Time)

1 62483U 25001A 26170.89350227 .00000134 00000+0 00000+0 0 9999 2 62483 0.0260 67.3649 0000129 235.0170 331.6905 1.00272730 4203
UTC large
Height (km)
Speed (km/s)
/
Latitude / Longitude
Inclination (degrees)
Orbital Period (minutes)
Azimuth
Elevation
Range (km)
Doppler Factor

Next 0 passes for location: London (51.5072 / 0.1276)

No passes found over London.
THURAYA-4